Regional Weather Roundup
Issued by NWS Kansas City/Pleasant Hill, MO

Home | Current Version | Previous Version | Text Only | Print | Product List | Glossary On
Versions: 1 2 3 4 5 6 7 8 9 10 11 12 13 14 15 16 17 18 19 20 21 22 23 24 25 26 27 28 29 30 31 32 33 34 35 36 37 38 39 40 41 42 43 44 45 46 47 48 49 50
000
ASUS43 KEAX 201611
RWREAX

WEATHER ROUNDUP FOR EASTERN KANSAS AND NORTHWEST MISSOURI
NATIONAL WEATHER SERVICE KANSAS CITY/PLEASANT HILL MO
1100 AM CDT SUN APR 20 2014

KSZ040-057-103>105-MOZ028-029-037-043-201700-
...KANSAS CITY METROPOLITAN AREA...

CITY           SKY/WX    TMP DP  RH WIND       PRES   REMARKS
K.C. INTL      PTSUNNY   74  52  46 SW17      30.09S
K.C. DOWNTOWN  MOSUNNY   75  52  44 S13G24    30.09S
LEES SUMMIT    MOSUNNY   73  51  46 SW18      30.11S
OLATHE - IXD   MOSUNNY   72  52  49 S16G25    30.10F
OLATHE - OJC   MOSUNNY   70  52  52 S13G21    30.10S
LAWRENCE       MOSUNNY   74  53  48 S13       30.08S

$$

MOZ001>008-011>017-020>025-030>033-038>040-044>046-053-054-201700-
...NORTHERN AND CENTRAL MISSOURI...

CITY           SKY/WX    TMP DP  RH WIND       PRES   REMARKS
ST. JOSEPH     PTSUNNY   72  51  47 SW18      30.07R
MOSBY          FAIR      72  52  49 S13G20    30.10S
WARRENSBURG    MOSUNNY  N/A N/A N/A S10       30.13S
WHITEMAN AFB   MOSUNNY   72  46  39 SW15      30.13S
CLINTON        SUNNY     73  54  49 SW13G18   30.16R
SEDALIA        MOSUNNY   72  52  49 SW12      30.15S
WARSAW         NOT AVBL
MARSHALL         N/A     77  55  47 SW10G16   30.14S
CHILLICOTHE      N/A     73  51  46 S12       30.11S
MOBERLY        SUNNY     75  46  35 S10       30.14F
KIRKSVILLE     SUNNY     74  49  41 SW10      30.13S

$$

MOZ041-047>049-056>058-063>065-088>090-097-201700-
...EASTERN AND SOUTHERN MISSOURI...

CITY           SKY/WX    TMP DP  RH WIND       PRES   REMARKS
ST. LOUIS INTL PTSUNNY   74  41  30 S12G20    30.19F
SPIRIT OF STL  SUNNY     74  41  30 S7        30.17F
COLUMBIA       SUNNY     74  51  44 S8        30.16S
JEFFERSON CITY SUNNY     73  49  42 SW7       30.16S
MEXICO         SUNNY     72  52  49 S10       30.16S
HANNIBAL       MOSUNNY   77  41  27 S9        30.15F
ROLLA          SUNNY     71  49  45 VRB6G16   30.17S
LEBANON        SUNNY     73  48  40 S10       30.19S
OSAGE BEACH    MOSUNNY   73  48  40 S13       30.18R
SPRINGFIELD    SUNNY     72  51  47 S12       30.18S
BRANSON        PTSUNNY   72  48  43 S9        30.20S
NEVADA         SUNNY     73  52  46 S13       30.15F
JOPLIN         MOSUNNY   72  50  45 S14       30.15F
WEST PLAINS    SUNNY     70  46  42 S9        30.21F
MALDEN         SUNNY     73  50  43 S8        30.21F

$$

IAZ060-094-KSZ022-034>040-054-083-096-NEZ052-066-093-201700-
...KANSAS...SOUTHEAST NEBRASKA AND IOWA...

CITY           SKY/WX    TMP DP  RH WIND       PRES   REMARKS
TOPEKA         SUNNY     74  52  46 SW16G23   30.07S
MANHATTAN      MOSUNNY   74  53  48 S17G25    30.03R
EMPORIA        MOSUNNY   72  53  51 S18       30.07F
CHANUTE        MOSUNNY   70  52  52 S16       30.12F
WICHITA        CLOUDY    66  53  63 S16       30.08R
OMAHA          CLOUDY    73  51  46 SW10      29.99S
LINCOLN        PTSUNNY   74  51  44 SW13      30.00R
FALLS CITY     PTSUNNY   75  53  46 SW20      30.02R
LAMONI         MOSUNNY   74  51  44 S14       30.07S
DES MOINES     PTSUNNY   76  51  41 S15G22    30.04F

$$




USA.gov is the U.S. government's official web portal to all federal, state and local government web resources and services.